This demonstration page uses our WeatherBlox Daily Observations layout. Learn more.

Left ArrowRight Arrow

41.86663, -103.66717

Hourly Observations for April 16, 2017

Temp ( °F °C ) Dew Point ( °F °C ) Humidity (%) Winds ( mph kmh ) Pressure ( in mb ) Visibility ( mi km ) Precip ( " mm )
12:53 am 00:53 Clear 37 2.8 24 -4.4 59 59 NE 6 9 30.05 1018 10 16.0934 N/A
1:53 am 01:53 Clear 39 3.9 23 -5 53 53 N N/A 30.04 1017 10 16.0934 N/A
2:53 am 02:53 Clear 38 3.3 22 -5.6 52 52 N N/A 30.04 1017 10 16.0934 N/A
3:53 am 03:53 Clear 33 0.6 24 -4.4 70 70 N N/A 30.07 1018 10 16.0934 N/A
4:53 am 04:53 Clear 31 -0.6 22 -5.6 69 69 ESE 5 7 30.09 1019 10 16.0934 N/A
5:53 am 05:53 Mostly Clear 33 0.6 24 -4.4 70 70 E 10 17 30.1 1019 10 16.0934 N/A
6:53 am 06:53 Sunny 39 3.9 29 -1.7 67 67 E 9 15 30.1 1019 10 16.0934 N/A
7:53 am 07:53 Sunny 45 7.2 31 -0.6 58 58 ESE 10 17 30.12 1020 10 16.0934 N/A
8:53 am 08:53 Sunny 51 10.6 35 1.7 54 54 SE 10 17 30.12 1020 10 16.0934 N/A
9:53 am 09:53 Sunny 57 13.9 38 3.3 49 49 S 7 11 30.1 1019 10 16.0934 N/A
10:53 am 10:53 Sunny 63 17.2 28 -2.2 27 27 SSW 12 19 30.07 1018 10 16.0934 N/A
11:53 am 11:53 Sunny 66 18.9 21 -6.1 18 18 WSW 10 17 30.05 1018 10 16.0934 N/A
12:53 pm 12:53 Sunny 68 20 21 -6.1 17 17 WSW 13 20 30.02 1017 10 16.0934 N/A
1:53 pm 13:53 Sunny 69 20.6 24 -4.4 18 18 S 12 19 30 1016 10 16.0934 N/A
2:53 pm 14:53 Sunny 72 22.2 23 -5 16 16 SW 17 28 29.96 1015 10 16.0934 N/A
3:53 pm 15:53 Sunny 73 22.8 22 -5.6 15 15 W 7 11 29.95 1014 10 16.0934 N/A
4:53 pm 16:53 Sunny 73 22.8 23 -5 15 15 WNW 9 15 29.96 1015 10 16.0934 N/A
5:53 pm 17:53 Sunny 72 22.2 21 -6.1 15 15 NW 12 19 29.96 1015 10 16.0934 N/A
6:53 pm 18:53 Sunny 64 17.8 24 -4.4 22 22 N 7 11 29.98 1015 10 16.0934 N/A
7:53 pm 19:53 Clear 57 13.9 24 -4.4 28 28 NNE 13 20 30.01 1016 10 16.0934 N/A
8:53 pm 20:53 Clear 56 13.3 22 -5.6 27 27 NE 17 28 30.03 1017 10 16.0934 N/A
9:53 pm 21:53 Mostly Clear 56 13.3 23 -5 28 28 ENE 13 20 30.05 1018 10 16.0934 N/A
10:40 pm 22:40 Clear 52 11 27 -3 38 38 ENE 22 35 30.06 1018 10 16.0934 N/A
10:53 pm 22:53 Clear 51 10.6 26 -3.3 38 38 ENE 24 39 30.05 1018 10 16.0934 N/A
11:53 pm 23:53 Clear 48 8.9 25 -3.9 41 41 E 14 22 30.08 1019 10 16.0934 N/A

Powered by AerisWeather